DW3841 Weather Reports


Display with metric or nautical units.
time (UTC)temp
F
wind
direction
speed
MPH
gust
MPH
rain 1hr
in
rain 24hr
in
rain mn
in
humidity
%
barometer
mb
20221003213024 49 253 0.0 4.0 0.00 0.00 0.00 90 1025.2
20221003211520 48 196 0.0 1.0 0.00 0.00 0.00 93 1025.1
20221003210018 47 220 0.0 1.0 0.00 0.00 0.00 94 1025.1
20221003204558 46 232 0.0 1.0 0.00 0.00 0.00 96 1025.0
20221003203046 45 111 0.0 2.0 0.00 0.00 0.00 96 1025.0
20221003201544 44 182 0.0 0.0 0.00 0.00 0.00 95 1024.8
20221003200043 44 182 0.0 0.0 0.00 0.00 0.00 95 1024.6
20221003194536 44 182 0.0 0.0 0.00 0.00 0.00 95 1024.3
20221003193033 44 182 0.0 0.0 0.00 0.00 0.00 94 1024.0
20221003191559 44 182 0.0 0.0 0.00 0.00 0.00 94 1023.8
20221003190025 44 182 0.0 0.0 0.00 0.00 0.00 93 1023.7
20221003184524 44 182 0.0 0.0 0.00 0.00 0.00 92 1023.5
20221003183019 44 182 0.0 0.0 0.00 0.00 0.00 92 1023.2
20221003181514 44 182 0.0 0.0 0.00 0.00 0.00 91 1023.1
20221003180022 45 182 0.0 0.0 0.00 0.00 0.00 91 1022.9
20221003174509 45 182 0.0 0.0 0.00 0.00 0.00 90 1022.7
20221003173008 45 182 0.0 0.0 0.00 0.00 0.00 90 1022.5
20221003171509 46 182 0.0 0.0 0.00 0.00 0.00 89 1022.5
20221003170100 46 182 0.0 0.0 0.00 0.00 0.00 89 1022.4
20221003170001 46 182 0.0 0.0 0.00 0.00 0.00 89 1022.4
20221003164600 47 182 0.0 0.0 0.00 0.00 0.00 89 1022.5
20221003163104 47 182 0.0 0.0 0.00 0.00 0.00 89 1022.5
20221003161526 47 182 0.0 0.0 0.00 0.00 0.00 89 1022.5
20221003160036 47 182 0.0 0.0 0.00 0.00 0.00 89 1022.7
20221003154523 47 182 0.0 0.0 0.00 0.00 0.00 87 1022.6
20221003153037 47 182 0.0 0.0 0.00 0.00 0.00 87 1022.8
20221003151526 47 182 0.0 0.0 0.00 0.00 0.00 86 1022.8
20221003150028 47 182 0.0 0.0 0.00 0.00 0.00 86 1022.7
20221003144519 47 182 0.0 0.0 0.00 0.00 0.00 87 1022.6
20221003143024 47 182 0.0 0.0 0.00 0.00 0.00 87 1022.6
20221003141525 47 182 0.0 0.0 0.00 0.00 0.00 88 1022.3
20221003140017 47 182 0.0 0.0 0.00 0.00 0.00 88 1022.4
20221003134520 47 182 0.0 0.0 0.00 0.00 0.00 88 1022.3
20221003133014 47 182 0.0 0.0 0.00 0.00 0.00 88 1022.4
20221003131513 47 182 0.0 0.0 0.00 0.00 0.00 88 1022.3
20221003130015 48 182 0.0 0.0 0.00 0.00 0.00 89 1022.3
20221003124510 48 182 0.0 0.0 0.00 0.00 0.00 90 1022.5
20221003123011 49 182 0.0 0.0 0.00 0.00 0.00 90 1022.5
20221003121508 49 182 0.0 0.0 0.00 0.00 0.00 90 1022.3
20221003120008 49 182 0.0 0.0 0.00 0.00 0.00 89 1022.4
20221003114506 50 182 0.0 0.0 0.00 0.00 0.00 89 1022.2
20221003113008 50 182 0.0 0.0 0.00 0.00 0.00 89 1022.0
20221003111504 51 182 0.0 1.0 0.00 0.00 0.00 89 1022.1
20221003110010 51 182 0.0 1.0 0.00 0.00 0.00 88 1022.2
20221003104502 52 182 0.0 1.0 0.00 0.00 0.00 88 1022.2
20221003103034 52 182 0.0 1.0 0.00 0.00 0.00 86 1022.3
20221003101534 53 182 0.0 1.0 0.00 0.00 0.00 86 1022.1
20221003100030 53 182 0.0 1.0 0.00 0.00 0.00 86 1021.9
20221003094530 54 182 0.0 1.0 0.00 0.00 0.00 85 1021.6
20221003093029 54 182 0.0 1.0 0.00 0.00 0.00 85 1021.4
20221003091529 54 182 0.0 0.0 0.00 0.00 0.00 83 1021.3
20221003090058 55 182 0.0 0.0 0.00 0.00 0.00 81 1021.1
20221003084558 56 182 0.0 1.0 0.00 0.00 0.00 79 1020.9
20221003083054 57 182 0.0 0.0 0.00 0.00 0.00 76 1020.8
20221003081555 58 186 0.0 1.0 0.00 0.00 0.00 74 1020.8
20221003080058 60 185 0.0 1.0 0.00 0.00 0.00 71 1020.6
20221003074551 60 291 0.0 1.0 0.00 0.00 0.00 68 1020.6
20221003073051 61 163 0.0 3.0 0.00 0.00 0.00 62 1020.5
20221003071552 62 255 0.0 1.0 0.00 0.00 0.00 61 1020.3
20221003070055 63 254 0.0 1.0 0.00 0.00 0.00 62 1020.2
20221003064548 63 255 0.0 1.0 0.00 0.00 0.00 59 1020.0
20221003063043 64 255 0.0 3.0 0.00 0.00 0.00 53 1019.9
20221003061542 66 264 0.0 2.0 0.00 0.00 0.00 50 1019.8
20221003060040 68 241 1.0 3.0 0.00 0.00 0.00 47 1019.8
20221003054541 67 251 1.0 4.0 0.00 0.00 0.00 48 1019.9
20221003053038 67 154 0.0 2.0 0.00 0.00 0.00 48 1019.8
20221003051536 68 320 1.0 3.0 0.00 0.00 0.00 47 1019.9
20221003050032 68 253 2.0 4.0 0.00 0.00 0.00 47 1019.8
20221003044533 69 236 1.0 5.0 0.00 0.00 0.00 47 1019.9
20221003043027 68 105 1.0 3.0 0.00 0.00 0.00 49 1019.9
20221003041530 68 138 0.0 4.0 0.00 0.00 0.00 47 1020.2
20221003040021 68 267 1.0 5.0 0.00 0.00 0.00 46 1020.4
20221003034519 69 200 0.0 3.0 0.00 0.00 0.00 47 1020.6
20221003033012 68 124 0.0 5.0 0.00 0.00 0.00 45 1020.7
20221003031509 68 80 0.0 4.0 0.00 0.00 0.00 44 1020.9
20221003030007 67 134 1.0 5.0 0.00 0.00 0.00 45 1021.1
20221003024502 67 352 0.0 4.0 0.00 0.00 0.00 47 1021.3
20221003023110 66 322 1.0 4.0 0.00 0.00 0.00 50 1021.5
20221003021553 66 227 1.0 3.0 0.00 0.00 0.00 47 1021.5
20221003020052 66 220 1.0 4.0 0.00 0.00 0.00 46 1021.7
20221003014551 65 309 1.0 3.0 0.00 0.00 0.00 48 1021.9
20221003013015 64 106 2.0 4.0 0.00 0.00 0.00 51 1021.9
20221003011512 63 158 1.0 2.0 0.00 0.00 0.00 58 1022.1
20221003010039 61 329 1.0 3.0 0.00 0.00 0.00 62 1022.3
20221003004534 59 284 0.0 3.0 0.00 0.00 0.00 67 1022.4
20221003003032 58 290 1.0 3.0 0.00 0.00 0.00 64 1022.6
20221003001527 57 158 1.0 2.0 0.00 0.00 0.00 66 1022.8
20221003000025 56 251 1.0 5.0 0.00 0.00 0.00 67 1022.7
20221002234521 55 223 0.0 2.0 0.00 0.00 0.00 72 1023.0
20221002233015 54 215 1.0 3.0 0.00 0.00 0.00 72 1023.0
20221002231514 54 79 0.0 2.0 0.00 0.00 0.00 72 1022.8
20221002230018 53 87 0.0 2.0 0.00 0.00 0.00 72 1022.8
20221002224515 52 120 0.0 1.0 0.00 0.00 0.00 75 1022.8
20221002223006 51 258 0.0 1.0 0.00 0.00 0.00 78 1022.6
20221002221502 50 258 0.0 1.0 0.00 0.00 0.00 79 1022.5
20221002220114 49 258 0.0 1.0 0.00 0.00 0.00 85 1022.7
20221002214551 47 258 0.0 1.0 0.00 0.00 0.00 89 1022.6